Hourly Data Report for September 24, 2017

All times are specified in Local Standard Time (LST). Add 1 hour to adjust for Daylight Saving Time where and when it is observed.

EAST POINT (AUT)
PRINCE EDWARD ISLAND

46°27'36.000" N
61°59'18.000" W
7.70 m
8300418
71412
WEP

Download Data

Hourly Data (September 2017)
Hourly Data Report for September 24, 2017
Temp Definition
°C
Dew Point Temp Definition
°C
Rel Hum Definition
%
Wind Dir Definition
10's deg

Wind Spd Definition
km/h
Visibility Definition
km
Stn Press Definition
kPa
Hmdx Definition


Wind Chill Definition


Weather Definition


TIME
00:00 16.8 12.3 75 5 19   101.60     LegendNANA
01:00 16.7 13.0 79 7 11   101.62     LegendNANA
02:00 16.5 13.9 85 5 11   101.64     LegendNANA
03:00 16.5 13.6 83 5 9   101.65     LegendNANA
04:00 15.3 12.4 83 6 7   101.67     LegendNANA
05:00 14.8 12.3 85 10 5   101.65     LegendNANA
06:00 14.2 12.3 89 13 6   101.69     LegendNANA
07:00 14.2 11.9 86 12 7   101.69     LegendNANA
08:00 16.5 13.2 81 12 7   101.75     LegendNANA
09:00 16.4 11.4 72 13 11   101.72     LegendNANA
10:00 16.8 11.5 71 10 13   101.71     LegendNANA
11:00 16.8 11.2 70 10 15   101.67     LegendNANA
12:00 16.2 11.1 72 8 18   101.66     LegendNANA
13:00 16.3 11.9 75 10 18   101.57     LegendNANA
14:00 16.6 11.4 71 12 12   101.43     LegendNANA
15:00 16.6 12.2 75 13 13   101.36     LegendNANA
16:00 17.1 13.4 79 16 16   101.32     LegendNANA
17:00 18.4 14.8 80 18 15   101.37     LegendNANA
18:00 18.3 15.0 81 19 15   101.37     LegendNANA
19:00 18.8 15.9 83 18 20   101.41     LegendNANA
20:00 18.8 16.7 88 20 11   101.44     LegendNANA
21:00 19.0 15.9 82 27 12   101.49     LegendNANA
22:00 17.9 15.6 86 27 12   101.44     LegendNANA
23:00 17.4 15.5 89 27 14   101.46     LegendNANA

Notes on Data Quality.

Legend

  • E = Estimated
  • M = Missing
  • NA = Not Available
  • ‡ = Partner data that is not subject to review by the National Climate Archives
Date modified: